Hettinger, ND

4:34 PM MST on February 27, 2017 (GMT -0700)
Hettinger Municipal

Weather History for KHEI - February, 2013

Change the Weather History Date:

Sunday, February 10, 2013

  Actual Average Record
Temperature  
Mean Temperature 24 °F -  
Max Temperature 30 °F 31 °F 48 °F (2016)
Min Temperature 18 °F 9 °F -25 °F (2014)
Degree Days  
Heating Degree Days 41 45  
Month to date heating degree days 356 462  
Since 1 July heating degree days 5244 5538  
Moisture  
Dew Point 19 °F    
Average Humidity 78    
Maximum Humidity 92    
Minimum Humidity 68    
Precipitation  
Precipitation T in 0.02 in 0.06 in (2004)
Month to date precipitation 0.03 0.19  
Year to date precipitation 0.06 0.50  
Sea Level Pressure  
Sea Level Pressure 29.85 in    
Wind  
Wind Speed 24 mph (NW)    
Max Wind Speed 38 mph    
Max Gust Speed 46 mph    
Visibility 9 miles    
Events Snow    
T = Trace of Precipitation, MM = Missing Value Source: NWS Daily Summary

Daily Weather History Graph

Daily Weather History Graph

Search for Another Location

Airport or City:

Trip Planner

Search our weather history database for the weather conditions in past years. The results will help you decide how hot, cold, wet, or windy it might be!

Date:

Astronomy

Feb. 10, 2013 Rise Set
Actual Time 7:00 AM MST 5:09 PM MST
Civil Twilight 6:29 AM MST 5:41 PM MST
Nautical Twilight 5:54 AM MST 6:16 PM MST
Astronomical Twilight 5:19 AM MST 6:51 PM MST
Moon 6:47 AM MST (2/10) 6:09 PM MST (2/10)
Length of Visible Light 11h 11m
Length of Day
10h 09m
New Moon, 0% of the Moon is Illuminated
Feb 10
New Moon
Feb 17
First Quarter
Feb 25
Full
Mar 4
Last Quarter
Mar 11
New

Hourly Weather History & Observations

Time (MST) Temp. Windchill Dew Point Humidity Pressure Visibility Wind Dir Wind Speed Gust Speed Precip Events Conditions
12:53 AM 26.1 °F 17.6 °F 21.9 °F 84% 29.79 in 10.0 mi NNW 8.1 mph - N/A   Mostly Cloudy
1:53 AM 27.0 °F 16.1 °F 21.0 °F 78% 29.79 in 10.0 mi NNW 12.7 mph - N/A   Overcast
2:53 AM 27.0 °F 15.6 °F 21.9 °F 81% 29.78 in 10.0 mi NNW 13.8 mph - N/A   Overcast
3:53 AM 25.0 °F 11.7 °F 21.9 °F 88% 29.78 in 10.0 mi NNW 17.3 mph 25.3 mph N/A   Overcast
4:20 AM 24.8 °F 11.1 °F 21.2 °F 86% 29.70 in 10.0 mi NNW 18.4 mph 25.3 mph N/A   Overcast
4:29 AM 26.6 °F 13.1 °F 23.0 °F 86% 29.70 in 9.0 mi NNW 19.6 mph 27.6 mph N/A   Overcast
4:48 AM 26.6 °F 13.1 °F 24.8 °F 93% 29.70 in 5.0 mi NNW 19.6 mph 26.5 mph N/A   Overcast
4:53 AM 27.0 °F 13.5 °F 25.0 °F 92% 29.78 in 4.0 mi NNW 19.6 mph 28.8 mph N/A   Overcast
5:46 AM 28.4 °F 14.1 °F 24.8 °F 86% 29.71 in 7.0 mi NNW 24.2 mph 31.1 mph N/A   Overcast
5:53 AM 28.0 °F 13.9 °F 25.0 °F 88% 29.79 in 7.0 mi NNW 23.0 mph 31.1 mph N/A   Overcast
6:41 AM 28.4 °F 14.4 °F 24.8 °F 86% 29.72 in 10.0 mi NNW 23.0 mph 28.8 mph N/A   Overcast
6:53 AM 28.0 °F 13.6 °F 24.1 °F 85% 29.81 in 10.0 mi NNW 24.2 mph 31.1 mph N/A   Overcast
7:53 AM 28.0 °F 13.3 °F 24.1 °F 85% 29.82 in 10.0 mi NNW 25.3 mph 29.9 mph N/A   Overcast
8:07 AM 28.4 °F 13.8 °F 24.8 °F 86% 29.73 in 10.0 mi NNW 25.3 mph 32.2 mph N/A   Overcast
8:30 AM 28.4 °F 14.4 °F 24.8 °F 86% 29.73 in 8.0 mi NNW 23.0 mph 32.2 mph N/A   Overcast
8:53 AM 28.0 °F 13.0 °F 25.0 °F 88% 29.82 in 9.0 mi NNW 26.5 mph 36.8 mph N/A   Overcast
9:16 AM 28.4 °F 14.1 °F 24.8 °F 86% 29.73 in 10.0 mi NNW 24.2 mph 38.0 mph N/A   Overcast
9:53 AM 28.0 °F 12.3 °F 24.1 °F 85% 29.83 in 10.0 mi NNW 29.9 mph 40.3 mph N/A   Overcast
10:44 AM 28.4 °F 12.5 °F 23.0 °F 80% 29.76 in 10.0 mi NNW 31.1 mph 43.7 mph 0.00 in   Overcast
10:50 AM 28.4 °F 12.3 °F 21.2 °F 74% 29.76 in 9.0 mi NNW 32.2 mph 44.9 mph 0.00 in Snow Light Snow
10:53 AM 28.9 °F 12.8 °F 21.9 °F 75% 29.85 in 9.0 mi NNW 33.4 mph 44.9 mph 0.00 in Snow Light Snow
11:53 AM 28.9 °F 13.0 °F 19.9 °F 69% 29.85 in 10.0 mi NNW 32.2 mph 41.4 mph 0.00 in   Overcast
12:06 PM 28.4 °F 12.7 °F 19.4 °F 69% 29.76 in 10.0 mi NNW 29.9 mph 41.4 mph 0.00 in Snow Light Snow
12:15 PM 28.4 °F 12.7 °F 19.4 °F 69% 29.76 in 8.0 mi NNW 29.9 mph 41.4 mph 0.00 in Snow Light Snow
12:46 PM 28.4 °F 12.3 °F 19.4 °F 69% 29.76 in 9.0 mi NNW 32.2 mph 46.0 mph 0.00 in Snow Light Snow
12:53 PM 28.9 °F 12.5 °F 19.0 °F 67% 29.85 in 9.0 mi NNW 34.5 mph 42.6 mph 0.00 in Snow Light Snow
1:53 PM 28.0 °F 12.8 °F 19.0 °F 69% 29.86 in 10.0 mi NNW 27.6 mph 39.1 mph 0.00 in   Overcast
2:01 PM 28.4 °F 13.8 °F 19.4 °F 69% 29.78 in 10.0 mi NNW 25.3 mph 38.0 mph N/A   Overcast
2:42 PM 28.4 °F 13.0 °F 17.6 °F 64% 29.80 in 10.0 mi NNW 28.8 mph 38.0 mph N/A   Overcast
2:53 PM 27.0 °F 12.2 °F 18.0 °F 69% 29.90 in 10.0 mi NNW 24.2 mph 38.0 mph N/A   Overcast
3:53 PM 26.1 °F 10.1 °F 18.0 °F 71% 29.93 in 10.0 mi NNW 27.6 mph 36.8 mph 0.00 in Snow Light Snow
4:22 PM 26.6 °F 10.6 °F 17.6 °F 69% 29.84 in 7.0 mi NW 28.8 mph 33.4 mph 0.00 in Snow Light Snow
4:53 PM 24.1 °F 6.4 °F 16.0 °F 71% 29.95 in 9.0 mi NW 32.2 mph 40.3 mph 0.00 in Snow Light Snow
5:33 PM 23.0 °F 6.3 °F 15.8 °F 74% 29.86 in 10.0 mi NW 26.5 mph 36.8 mph 0.00 in   Overcast
5:50 PM 23.0 °F 7.2 °F 15.8 °F 74% 29.87 in 10.0 mi NW 23.0 mph 29.9 mph 0.00 in   Overcast
5:53 PM 23.0 °F 7.2 °F 16.0 °F 74% 29.97 in 10.0 mi NW 23.0 mph 29.9 mph 0.00 in   Overcast
6:53 PM 21.0 °F 4.3 °F 14.0 °F 74% 30.01 in 10.0 mi NW 24.2 mph 29.9 mph N/A   Overcast
7:53 PM 19.9 °F 2.2 °F 12.9 °F 74% 30.02 in 8.0 mi NW 26.5 mph 36.8 mph 0.00 in Snow Light Snow
8:53 PM 19.9 °F 2.8 °F 12.9 °F 74% 30.04 in 9.0 mi NW 24.2 mph 33.4 mph 0.00 in   Overcast
9:10 PM 19.4 °F 2.8 °F 12.2 °F 74% 29.94 in 10.0 mi NW 21.9 mph 31.1 mph N/A   Overcast
9:53 PM 19.0 °F 1.6 °F 12.0 °F 74% 30.06 in 10.0 mi NW 24.2 mph 35.7 mph N/A   Overcast
10:24 PM 19.4 °F 2.8 °F 12.2 °F 74% 29.96 in 9.0 mi NW 21.9 mph 29.9 mph 0.00 in Snow Light Snow
10:46 PM 17.6 °F 0.9 °F 12.2 °F 79% 29.96 in 10.0 mi WNW 20.7 mph 29.9 mph 0.00 in   Overcast
10:53 PM 18.0 °F 0.2 °F 12.0 °F 78% 30.07 in 10.0 mi WNW 24.2 mph 31.1 mph 0.00 in   Overcast
11:29 PM 19.4 °F 3.2 °F 12.2 °F 74% 29.97 in 10.0 mi WNW 20.7 mph 31.1 mph N/A   Overcast
11:40 PM 19.4 °F 2.8 °F 12.2 °F 74% 29.97 in 10.0 mi WNW 21.9 mph 31.1 mph N/A   Overcast
11:53 PM 19.0 °F 1.3 °F 12.0 °F 74% 30.08 in 10.0 mi WNW 25.3 mph 32.2 mph N/A   Overcast